NOAA 16 DEB, 41292

Orbit data source: Space-Track

NOAA 16 DEB, 41292 is space debris in SSO originally from a launch on Thu, 21 Sep 2000 UTC launched from the Air Force Western Test Range (AFWTR). Debris objects in space refer to the collection of defunct objects orbiting the Earth. Examples of debris include non-operational satellites, rocket bodies, and fragments generated from explosions, collisions, or faulty payload assembly.

Loading next visibility...
Identifier
41292, 2000-055GU
Orbit
SSO
Country
Flag of USUS
Related business
Manufacturer
Unknown
Mission
Spacecraft
Bus & Motor
Unknown
Mass
Unknown
Launch date (UTC)
2000-09-21 (26 years ago)
Launch vehicle
Unknown
Launch site
Air Force Western Test Range (AFWTR)
Object type
Payload
Rocket body
Debris
Shape & HBR
Unknown shape, 0.1 m
Radar Cross Section
Small (<0.1 m²)

Expand to show TLE details & history
Last TLE update: 1 day ago

TLE from 1 day ago
0 NOAA 16 DEB
1 41292U 00055GU  26124.61272259  .00007494  00000-0  16147-2 0  9992
2 41292  98.9678 358.1825 0031277 152.8733 207.4106 14.58450336541489
Epoch: 2026-05-04T14:42Z
TLE epoch observation values (Epoch: 2026-05-04T14:42:19.231Z)
Latitude
-0.00005°
Longitude
-84.89703°
Altitude
720.807 km
Speed
7.485 km/s
True Right ascension
23h 52m 43s
True Declination
0° 00' 00"
Sunlit
Object was in daylight at epoch
Visualization orbit readout
Latitude
Unknown
Longitude
Unknown
Altitude
Unknown
Speed
Unknown
Apparent Right ascension
Unknown
Apparent Declination
Unknown
Sunlit
N/A
Visualization observer readout
Local Sidereal Time
06:51:17
Azimuth
Unknown
Elevation
Unknown
Doppler factor
Unknown
Orbital elements
Apogee altitude
717.426 km
Perigee altitude
673.179 km
Semi-major axis
7,073.439 km
Eccentricity
0.00313
Inclination
98.9678°
RAAN
358.1825°
Arg. of periapsis
152.8733°
True anomaly
207.24617°
Mean anomaly
207.4106°
Eccentric anomaly
207.32833°
Mean motion
3.64836 °/min
Orbital period
98.67 mins
BSTAR
0.0016147
Loading maneuver chart data...
Computing Atmospheric mass density...
Loading historical data...
Loading historical data...
Loading historical data...
Loading historical data...
Loading historical data...
Loading historical data...
Loading historical data...

Documentation

Showing up to 5 results
|